[[{"header":{"parameterUnit":"m.s-1","parameterCategory":1,"la1":30.2991,"la2":30.254,"lo1":-89.0895,"lo2":-89.0444,"dy":0.0017,"dx":0.0017,"nx":28,"ny":28,"refTime":"2024-04-24T03:00:00:Z","depth":0,"parameterNumber":2,"parameterNumberName":"U-component_of_WINDS"},"data":[0,0,0,0,0,0,0,0,0,0,0,0,0,0,0,0,0,0,0,0,0,0,0,0,0,0,0,0,0,0,0,0,0,0,0,0,0,0,0,0,0,0,0,0,0,0,0,0,0,0,0,0,0,0,0,0,0,0,-0.9628,-0.9629,0,-0.9681,-0.9682,-0.9683,-0.9689,-0.9689,-0.9688,-0.9688,-0.9744,-0.9746,-0.9747,0,0,0,0,0,0,0,0,0,0,0,0,0,-0.9534,-0.9536,-0.9628,-0.9629,-0.963,-0.9681,-0.9682,-0.9683,-0.969,-0.9689,-0.9688,-0.9688,-0.9743,-0.9745,-0.9748,0,0,0,0,0,0,0,0,0,0,0,0,0,-0.958,-0.9537,-0.9628,-0.9639,-0.9641,-0.9681,-0.9682,-0.9683,-0.969,-0.9689,-0.9688,-0.9687,-0.9742,-0.9745,-0.9748,-0.9782,0,0,-0.9757,-0.9758,0,0,0,0,0,0,0,0,-0.9578,-0.9584,-0.9637,-0.9639,-0.964,-0.9678,-0.9669,-0.9716,-0.969,-0.9671,-0.9688,-0.9687,-0.9723,-0.9727,-0.9739,-0.9784,-0.9787,-0.9757,-0.9759,-0.976,-0.9761,0,0,0,0,0,0,0,-0.9574,-0.9581,-0.9649,-0.9638,-0.964,-0.9642,-0.9648,-0.9678,-0.9701,-0.9673,-0.9673,-0.9679,-0.9723,-0.9736,-0.974,-0.9787,-0.9757,-0.976,-0.9762,-0.9763,-0.9864,-0.9864,0,0,0,0,0,0,-0.9569,-0.9579,-0.9648,-0.9651,-0.9606,-0.9644,-0.9651,-0.9667,-0.97,-0.9705,-0.968,-0.968,-0.9731,-0.9737,-0.9742,-0.9784,-0.976,-0.9763,-0.9765,-0.9863,-0.9864,-0.9865,0,0,0,0,0,0,-0.9567,-0.9575,-0.9646,-0.9615,-0.9624,-0.9647,-0.9665,-0.9668,-0.9681,-0.9706,-0.971,-0.9689,-0.9731,-0.9738,-0.9772,-0.9786,-0.9764,-0.9767,-0.9862,-0.9863,-0.9864,-0.9868,0,0,0,0,0,0,-0.9564,-0.9574,-0.9587,-0.9615,-0.9626,-0.9674,-0.9666,-0.967,-0.9686,-0.9686,-0.9715,-0.9719,-0.9731,-0.9767,-0.9775,-0.979,-0.9769,-0.986,-0.9862,-0.9864,-0.9867,-0.987,-0.9872,0,0,0,0,0,-0.9561,-0.9586,-0.9588,-0.9596,-0.9642,-0.9675,-0.9681,-0.9694,-0.9687,-0.97,-0.9716,-0.9718,-0.9783,-0.9771,-0.9779,-0.9795,-0.986,-0.9862,-0.9864,-0.9866,-0.9869,-0.9872,0,0,0,0,0,0,-0.956,-0.959,-0.9592,-0.9627,-0.9648,-0.9676,-0.9693,-0.9696,-0.972,-0.9719,-0.9734,-0.9741,-0.9774,-0.9788,-0.9773,-0.983,-0.9821,-0.9825,-0.982,-0.9823,-0.9825,-0.9822,-0.9772,0,0,0,0,0,-0.9564,-0.9587,-0.9613,-0.9642,-0.9652,-0.9671,-0.9685,-0.9693,-0.9716,-0.9725,-0.9743,-0.9766,-0.9791,-0.9808,-0.9832,-0.9869,-0.9876,-0.9884,-0.9886,-0.9888,-0.9892,-0.9913,-0.9917,-0.9871,-0.9871,-0.9871,0,0,-0.9572,-0.9592,-0.9606,-0.9642,-0.9659,-0.9684,-0.9678,-0.9705,-0.9723,-0.9729,-0.9762,-0.9776,-0.9802,-0.9837,-0.9854,-0.985,-0.9906,-0.9891,-0.9892,-0.9895,-0.9915,-0.9919,-0.9923,-0.9873,-0.9873,-0.9872,0,0,-0.9601,-0.9617,-0.9643,-0.9661,-0.9686,-0.9699,-0.9705,-0.9732,-0.9741,-0.9774,-0.9779,-0.9802,-0.9845,-0.9863,-0.9878,-0.9913,-0.9916,-0.992,-0.9934,-0.9954,-0.9957,-0.996,-0.9974,-0.9978,-0.9923,-0.9923,-0.9923,0,-0.9608,-0.9645,-0.9657,-0.9683,-0.9699,-0.9704,-0.9731,-0.9747,-0.978,-0.9791,-0.9786,-0.984,-0.9858,-0.9898,-0.9906,-0.9918,-0.9926,-0.9918,-0.9956,-0.9959,-0.9962,-0.9975,-0.998,-0.9924,-0.9924,-0.9924,-0.9924,0,-0.9654,-0.9679,-0.9697,-0.9728,-0.9746,-0.9772,-0.9788,-0.9805,-0.981,-0.9823,-0.9857,-0.9878,-0.9908,-0.9917,-0.9923,-0.9958,-0.9955,-0.9952,-0.9944,-0.9967,-0.9979,-0.9984,-0.9924,-0.9924,-0.9924,-0.9924,0,0,-0.9685,-0.9721,-0.9727,-0.9741,-0.977,-0.979,-0.9816,-0.9845,-0.9859,-0.9881,-0.9904,-0.994,-0.9938,-0.9955,-0.9963,-0.998,-1.0007,-0.9976,-0.9977,-0.9982,-1.0048,-1.005,-1.0056,-1.0009,-1.001,-1.001,-1.0046,0,-0.9717,-0.9764,-0.9775,-0.9816,-0.984,-0.9845,-0.9868,-0.9888,-0.99,-0.9923,-0.9936,-0.9962,-0.9957,-0.9967,-0.9984,-1.0,-1.0021,-0.9998,-1.0031,-1.0032,-1.0026,-1.0062,-1.0065,-1.0097,-1.005,-1.0051,-1.0052,0,-0.9762,-0.9784,-0.9827,-0.9852,-0.9863,-0.9884,-0.991,-0.9931,-0.9954,-0.9962,-0.998,-0.9986,-1.0015,-1.0003,-1.0043,-1.0027,-1.0041,-1.0051,-1.0052,-1.0057,-1.0045,-1.0069,-1.0108,-1.0113,-1.0059,-1.0059,-1.0058,0,-0.9781,-0.9822,-0.9853,-0.9865,-0.9895,-0.991,-0.9923,-0.9945,-0.9961,-0.9984,-0.9995,-1.0021,-1.0036,-1.0056,-1.0069,-1.0059,-1.0107,-1.0097,-1.0115,-1.0115,-1.0127,-1.0126,-1.017,-1.0133,-1.0133,-1.0133,-1.0133,0,-0.9817,-0.9844,-0.9863,-0.9882,-0.9912,-0.9923,-0.9953,-0.9966,-0.9985,-1.0008,-1.0013,-1.0034,-1.0049,-1.0072,-1.0083,-1.0114,-1.012,-1.0128,-1.0131,-1.0128,-1.0128,-1.0139,-1.0138,-1.0135,-1.0134,-1.0134,-1.0134,0,-0.9845,-0.9858,-0.9893,-0.9918,-0.9925,-0.9946,-0.9967,-0.9986,-0.9998,-1.0026,-1.0034,-1.0053,-1.008,-1.0095,-1.0129,-1.0136,-1.0171,-1.0172,-1.0164,-1.0165,-1.0183,-1.0182,-1.0237,-1.0245,-1.0202,-1.0202,-1.0202,0,-0.9868,-0.9888,-0.9915,-0.993,-0.9943,-0.9967,-0.9984,-0.9996,-1.0013,-1.004,-1.0056,-1.0083,-1.0106,-1.015,-1.0167,-1.0193,-1.0195,-1.0213,-1.0199,-1.0196,-1.0197,-1.0196,-1.0199,-1.0216,-1.0216,-1.0216,-1.0217,0,-0.9908,-0.9913,-0.9936,-0.9961,-0.998,-1.0001,-1.0021,-1.0033,-1.0048,-1.0067,-1.0095,-1.0112,-1.0147,-1.0175,-1.0202,-1.0216,-1.0219,-1.022,-1.0226,-1.0225,-1.022,-1.0224,-1.0172,-1.0219,-1.0219,-1.0219,-1.0219,-1.0219,-0.9935,-0.9953,-0.9975,-1.0,-1.0016,-1.0035,-1.0054,-1.0068,-1.0091,-1.012,-1.0125,-1.0155,-1.0177,-1.0214,-1.0229,-1.0252,-1.0249,-1.0257,-1.026,-1.0262,-1.0263,-1.0214,-1.0257,-1.0257,-1.0257,-1.0257,-1.0257,0,-0.9976,-0.9989,-1.0012,-1.004,-1.006,-1.006,-1.0082,-1.0099,-1.0125,-1.0145,-1.0167,-1.0199,-1.0225,-1.0244,-1.0271,-1.0286,-1.0289,-1.0293,-1.0293,-1.0296,-1.0264,-1.0257,-1.0291,-1.0291,-1.0291,-1.0291,-1.0291,-1.0291,-0.9999,-1.0031,-1.0038,-1.0078,-1.0091,-1.012,-1.0133,-1.015,-1.0166,-1.0202,-1.0223,-1.0235,-1.0255,-1.0283,-1.0307,-1.0312,-1.0322,-1.0327,-1.0332,-1.0302,-1.0299,-1.0295,-1.0289,-1.0329,-1.0329,-1.0363,-1.0363,-1.0363]},{"header":{"parameterUnit":"m.s-1","parameterCategory":1,"la1":30.2991,"la2":30.254,"lo1":-89.0895,"lo2":-89.0444,"dy":0.0017,"dx":0.0017,"nx":28,"ny":28,"refTime":"2024-04-24T03:00:00:Z","depth":0,"parameterNumber":3,"parameterNumberName":"V-component_of_WINDS"},"data":[0,0,0,0,0,0,0,0,0,0,0,0,0,0,0,0,0,0,0,0,0,0,0,0,0,0,0,0,0,0,0,0,0,0,0,0,0,0,0,0,0,0,0,0,0,0,0,0,0,0,0,0,0,0,0,0,0,0,-0.3687,-0.3686,0,-0.361,-0.3609,-0.3608,-0.3625,-0.3626,-0.3628,-0.3629,-0.3549,-0.3546,-0.3542,0,0,0,0,0,0,0,0,0,0,0,0,0,-0.385,-0.3847,-0.3687,-0.3686,-0.3685,-0.361,-0.3609,-0.3608,-0.3625,-0.3626,-0.3628,-0.363,-0.355,-0.3546,-0.3542,0,0,0,0,0,0,0,0,0,0,0,0,0,-0.3777,-0.3846,-0.3688,-0.3685,-0.3684,-0.361,-0.3609,-0.3607,-0.3624,-0.3626,-0.3629,-0.3631,-0.3552,-0.3547,-0.3541,-0.3465,0,0,-0.3525,-0.3523,0,0,0,0,0,0,0,0,-0.3781,-0.3771,-0.3686,-0.3685,-0.3684,-0.3629,-0.3637,-0.356,-0.3624,-0.3647,-0.3629,-0.3632,-0.3574,-0.3567,-0.3548,-0.3461,-0.3458,-0.3525,-0.3522,-0.3519,-0.3518,0,0,0,0,0,0,0,-0.3786,-0.3774,-0.3657,-0.3685,-0.3683,-0.3687,-0.3679,-0.3622,-0.3599,-0.3645,-0.3646,-0.3637,-0.3574,-0.3553,-0.3546,-0.3457,-0.3525,-0.352,-0.3517,-0.3515,-0.3303,-0.3301,0,0,0,0,0,0,-0.3792,-0.3778,-0.3659,-0.3654,-0.3739,-0.3683,-0.3674,-0.3644,-0.36,-0.3595,-0.3635,-0.3638,-0.356,-0.3552,-0.3543,-0.345,-0.352,-0.3515,-0.3512,-0.3306,-0.3303,-0.33,0,0,0,0,0,0,-0.3796,-0.3781,-0.3662,-0.3716,-0.3702,-0.3677,-0.3645,-0.3642,-0.3621,-0.3592,-0.3588,-0.3618,-0.3562,-0.355,-0.3484,-0.3447,-0.3512,-0.3507,-0.3309,-0.3305,-0.3301,-0.3264,0,0,0,0,0,0,-0.38,-0.3783,-0.3753,-0.3716,-0.3699,-0.3605,-0.3642,-0.3639,-0.3612,-0.3615,-0.3575,-0.357,-0.3563,-0.3492,-0.3479,-0.3441,-0.3503,-0.3312,-0.3307,-0.3303,-0.3268,-0.3259,-0.3251,0,0,0,0,0,-0.3806,-0.3746,-0.3752,-0.3737,-0.3662,-0.3602,-0.3593,-0.3585,-0.3609,-0.3579,-0.3561,-0.3572,-0.3454,-0.3485,-0.3471,-0.3431,-0.3314,-0.3308,-0.3303,-0.3272,-0.3261,-0.3252,0,0,0,0,0,0,-0.378,-0.3741,-0.3747,-0.3673,-0.3641,-0.3605,-0.3568,-0.3574,-0.3535,-0.3539,-0.3532,-0.3522,-0.3455,-0.3437,-0.3472,-0.3354,-0.3387,-0.3379,-0.3368,-0.3358,-0.335,-0.3355,-0.3499,0,0,0,0,0,-0.3766,-0.3721,-0.3689,-0.3627,-0.3611,-0.3592,-0.3566,-0.3563,-0.3529,-0.3516,-0.3493,-0.3459,-0.3415,-0.3386,-0.3343,-0.3266,-0.3257,-0.3232,-0.3223,-0.3217,-0.3209,-0.3165,-0.3153,-0.3282,-0.3282,-0.3282,0,0,-0.3735,-0.3709,-0.3681,-0.3621,-0.3596,-0.3549,-0.358,-0.353,-0.3495,-0.3508,-0.3444,-0.3426,-0.3388,-0.3316,-0.3283,-0.3298,-0.3171,-0.3209,-0.3204,-0.32,-0.3158,-0.3146,-0.3135,-0.3278,-0.3279,-0.3279,0,0,-0.3656,-0.3632,-0.3577,-0.3551,-0.3512,-0.35,-0.3487,-0.3451,-0.3439,-0.3374,-0.3383,-0.3342,-0.3265,-0.3238,-0.3214,-0.3124,-0.3132,-0.3111,-0.3067,-0.3025,-0.3015,-0.3006,-0.2972,-0.2961,-0.3103,-0.3103,-0.3103,0,-0.3623,-0.3554,-0.3548,-0.3496,-0.3469,-0.3479,-0.3423,-0.3398,-0.3348,-0.3329,-0.3347,-0.3251,-0.3227,-0.3148,-0.3126,-0.3107,-0.3091,-0.3115,-0.3017,-0.3007,-0.2999,-0.2967,-0.2955,-0.3101,-0.3101,-0.3101,-0.3102,0,-0.3514,-0.3466,-0.3426,-0.3377,-0.3346,-0.3292,-0.3278,-0.3247,-0.3247,-0.3233,-0.3167,-0.3138,-0.3089,-0.3071,-0.307,-0.2991,-0.3002,-0.3019,-0.3051,-0.2984,-0.2954,-0.2942,-0.3097,-0.3098,-0.3099,-0.31,0,0,-0.3416,-0.3364,-0.3349,-0.3327,-0.3285,-0.3247,-0.3194,-0.3146,-0.3119,-0.3085,-0.3039,-0.2974,-0.2989,-0.2962,-0.2959,-0.2922,-0.2852,-0.2943,-0.2942,-0.2926,-0.2761,-0.2748,-0.2734,-0.2858,-0.2855,-0.2853,-0.2764,0,-0.3331,-0.3237,-0.3231,-0.3146,-0.31,-0.3109,-0.3063,-0.3032,-0.3017,-0.2977,-0.2961,-0.2915,-0.2939,-0.2922,-0.2886,-0.2868,-0.2818,-0.2874,-0.2814,-0.2812,-0.2822,-0.2718,-0.2704,-0.2621,-0.2752,-0.275,-0.2749,0,-0.322,-0.3182,-0.3092,-0.3056,-0.3037,-0.2995,-0.2951,-0.2912,-0.2877,-0.2869,-0.2839,-0.2841,-0.2785,-0.2821,-0.2745,-0.2783,-0.2759,-0.2746,-0.2742,-0.2735,-0.2775,-0.2707,-0.2594,-0.2581,-0.273,-0.2732,-0.2733,0,-0.3155,-0.3081,-0.3018,-0.2998,-0.2955,-0.2925,-0.2906,-0.2873,-0.2845,-0.2806,-0.2788,-0.2744,-0.2719,-0.2684,-0.2674,-0.2701,-0.2597,-0.2633,-0.2588,-0.2588,-0.2565,-0.2566,-0.2445,-0.2551,-0.2551,-0.2552,-0.2552,0,-0.3061,-0.3006,-0.2988,-0.2948,-0.2886,-0.2879,-0.2818,-0.28,-0.2771,-0.2728,-0.2734,-0.2694,-0.2683,-0.2641,-0.2633,-0.257,-0.2559,-0.2551,-0.2549,-0.2549,-0.255,-0.2532,-0.2537,-0.2548,-0.2549,-0.255,-0.255,0,-0.2977,-0.2963,-0.2894,-0.2859,-0.2849,-0.2805,-0.2775,-0.2737,-0.2723,-0.2669,-0.2656,-0.2635,-0.2585,-0.2572,-0.2513,-0.2507,-0.2433,-0.2437,-0.2444,-0.2444,-0.24,-0.2404,-0.2261,-0.2242,-0.2362,-0.2361,-0.236,0,-0.2917,-0.2875,-0.2835,-0.2807,-0.2786,-0.2741,-0.2712,-0.2703,-0.2673,-0.263,-0.2597,-0.2548,-0.2508,-0.2429,-0.2408,-0.2363,-0.2365,-0.2318,-0.2358,-0.2359,-0.2362,-0.2364,-0.236,-0.231,-0.2309,-0.2308,-0.2307,0,-0.2812,-0.2807,-0.2765,-0.272,-0.2686,-0.265,-0.2616,-0.2593,-0.258,-0.2545,-0.2495,-0.2464,-0.2403,-0.2354,-0.2308,-0.2288,-0.2295,-0.2295,-0.2282,-0.2281,-0.2286,-0.2282,-0.2422,-0.2298,-0.2299,-0.23,-0.23,-0.23,-0.2737,-0.2699,-0.2665,-0.2618,-0.2592,-0.256,-0.2522,-0.2504,-0.2462,-0.2412,-0.241,-0.2354,-0.232,-0.2259,-0.2237,-0.2193,-0.2207,-0.2188,-0.2184,-0.2179,-0.2174,-0.2295,-0.2185,-0.2185,-0.2185,-0.2185,-0.2186,0,-0.2631,-0.2609,-0.2566,-0.2518,-0.2481,-0.2491,-0.2454,-0.2422,-0.2373,-0.2341,-0.2302,-0.2244,-0.2196,-0.2172,-0.2125,-0.2094,-0.2096,-0.2082,-0.2084,-0.2079,-0.2165,-0.218,-0.2081,-0.2081,-0.2081,-0.2082,-0.2082,-0.2082,-0.2571,-0.2507,-0.2498,-0.2421,-0.24,-0.2346,-0.2323,-0.2294,-0.2268,-0.2202,-0.2163,-0.2148,-0.2118,-0.2069,-0.2026,-0.202,-0.2002,-0.1985,-0.1981,-0.2062,-0.2073,-0.2083,-0.2097,-0.1982,-0.1982,-0.1898,-0.1897,-0.1896]}]]